alfabank.ua alexa rank chart, alfabank.ua alexa rank daily changes

alfabank.ua alexa rank chart, alfabank.ua alexa rank daily changes

alfabank.ua
Actual rank:
85 536

RANK HISTORY

Date Rank Diff
2017/10/21 85 536 -329
2017/10/20 85 865 +1 098
2017/10/19 84 767 -338
2017/10/18 85 105 +226
2017/10/17 84 879 +1 811
2017/10/16 83 068 -2 021
2017/10/14 85 089 -943
2017/10/13 86 032 -482
2017/10/12 86 514 -2 165
2017/10/11 88 679 -695
2017/10/10 89 374 -141
2017/10/09 89 515 +349
2017/10/08 89 166 -529
2017/10/07 89 695 -248
2017/10/06 89 943 -702
2017/10/05 90 645 +861
2017/10/04 89 784 -336
2017/10/03 90 120 -435
2017/10/02 90 555 +531
2017/10/01 90 024 +461
2017/09/30 89 563 -646
2017/09/29 90 209 -458
2017/09/28 90 667 -1 001
2017/09/27 91 668 -1 751
2017/09/26 93 419 -630
2017/09/25 94 049 +466
2017/09/24 93 583 +321
2017/09/23 93 262 -1 586
2017/09/22 94 848 -18
2017/09/20 94 866 -1 262
2017/09/19 96 128 +825
2017/09/18 95 303 +195
2017/09/17 95 108 +304
2017/09/16 94 804 +2 205
2017/09/15 92 599 +8
2017/09/14 92 591 +843
2017/09/13 91 748 -41
2017/09/12 91 789 +528
2017/09/11 91 261 +472
2017/09/10 90 789 +215
2017/09/09 90 574 +554
2017/09/08 90 020 +1 132
2017/09/07 88 888 -17
2017/09/06 88 905 +196
2017/09/05 88 709 -186
2017/09/04 88 895 -204
2017/09/03 89 099 +1 198
2017/09/02 87 901 -509
2017/09/01 88 410 -1 197
2017/08/31 89 607 +317
2017/08/30 89 290 -607
2017/08/29 89 897 +740
2017/08/28 89 157 +70
2017/08/27 89 087 +620
2017/08/26 88 467 +1 453
2017/08/25 87 014 -730
2017/08/24 87 744 -237
2017/08/23 87 981 +205
2017/08/22 87 776

WIDGET FOR YOUR SITE

DOMAINS WITH THE NEAREST RANK

Domain Rank
swissgoldglobal.ch 85 531
proxy4free.online 85 532
whoscall.com 85 533
poeldigi.com 85 534
shofha.com 85 535
alfabank.ua 85 536
glas-slavonije.hr 85 537
npust.edu.tw 85 538
o-jjal.com 85 539
idolpb.com 85 540
speedway.com 85 541

DOMAINS WITH THE NEAREST RANK BY TLD .ua

Domain Rank
ho.ua 81 168
vogue.ua 82 558
automoto.ua 82 677
aviso.ua 84 172
eset.ua 84 618
alfabank.ua 85 536
church.ua 86 401
elle.ua 87 094
rozetka.ua 87 602
ub.ua 88 190
0352.ua 88 535